Regional Weather Roundup
Issued by NWS

Home | Current Version | Previous Version | Graphics & Text | Print | Product List | Glossary On
Versions: 1 2 3 4 5 6 7 8 9 10 11 12 13 14 15 16 17 18 19 20 21 22 23 24 25 26 27 28 29 30 31 32 33 34 35 36 37 38 39 40 41 42 43 44 45 46 47 48 49 50
000
ASUS43 KDMX 312308
RWRIA

WEATHER ROUNDUP FOR IOWA
NATIONAL WEATHER SERVICE DES MOINES IA
600 PM CDT TUE MAY 31 2016

NOTE: "FAIR" INDICATES FEW OR NO CLOUDS BELOW 12,000 FEET WITH NO
SIGNIFICANT WEATHER AND/OR OBSTRUCTIONS TO VISIBILITY.

* - THESE STATIONS ARE NOT NWS STATIONS...THUS NOT UNDER NWS
QUALITY CONTROL.  THEY ALSO DO NOT REPORT WEATHER SUCH
AS PRECIPITATION OR FOG.

IAZ001>003-012>014-020>022-031>034-043>046-010000-
   NORTHWEST IOWA

CITY           SKY/WX    TMP DP  RH WIND       PRES   REMARKS
CARROLL *      SUNNY     73  55  53 NW8G15    29.89F
CHEROKEE *     MOSUNNY   73  50  43 NW6       29.89S
DENISON *      SUNNY     72  52  49 VRB5G12   29.89S
LE MARS *      SUNNY     73  46  38 W8G15     29.90S
ORANGE CITY *  SUNNY     73  48  40 W15       29.89S
SHELDON *      SUNNY     72  46  40 W12       29.87F
SIOUX CITY     SUNNY     76  46  34 NW9       29.90S
SPENCER        SUNNY     73  49  42 W10       29.88F
STORM LAKE *   SUNNY     72  50  46 NW5G13    29.90S
$$

IAZ055>058-069>071-079>083-090>094-010000-
   SOUTHWEST IOWA

CITY           SKY/WX    TMP DP  RH WIND       PRES   REMARKS
ATLANTIC *     MOSUNNY   73  61  64 N9        29.90S
AUDUBON *        N/A     75  61  60 NW8       29.91S
CLARINDA *       N/A     75  61  60 MISG      29.91S
COUNCIL BLFS * SUNNY     75  55  50 N5G13     29.91S
CRESTON *      MOSUNNY   75  61  60 NW14      29.91S
HARLAN  *      SUNNY     73  55  53 N10       29.93F
LAMONI         CLOUDY    75  62  64 W8        29.89S
RED OAK *      PTSUNNY   75  59  57 W7G13     29.90S
SHENANDOAH *   MOSUNNY   75  63  64 NW6G12    29.90S
$$

IAZ047>049-059>061-072>074-084-010000-
   CENTRAL IOWA

CITY           SKY/WX    TMP DP  RH WIND       PRES   REMARKS
AMES           CLOUDY    68  65  90 E3        29.89F
ANKENY *       MOSUNNY   68  66  94 N5        29.89F
BOONE *        MOSUNNY   72  63  73 NW7       29.89S
CHARITON *     PTSUNNY   72  63  73 NW14      29.91R
DES MOINES     CLOUDY    69  63  81 N3        29.90R
GRINNELL*      CLOUDY    68  63  83 NW9       29.90R
KNOXVILLE *    MOSUNNY   72  59  64 W18       29.88R
MARSHALLTOWN   RAIN      65  64  97 CALM      29.89F FOG
NEWTON *       CLOUDY    70  64  83 W14       29.89S
PERRY *          N/A     73  63  68 N8        29.89S
$$

IAZ004>006-015-016-023>025-035-036-010000-
   NORTH CENTRAL IOWA

CITY           SKY/WX    TMP DP  RH WIND       PRES   REMARKS
ALGONA *       SUNNY     72  55  56 W8G15     29.88F
CLARION *      SUNNY     70  59  68 NW7       29.89S
ESTHERVILLE    SUNNY     72  55  55 W12       29.88S
FORT DODGE *   MOSUNNY   72  57  60 NW5       29.90S
MASON CITY     CLOUDY    68  61  78 W8        29.89F
FOREST CITY *  MOSUNNY   68  59  73 W6        29.88S
WEBSTER CITY * SUNNY     72  63  73 NW7       29.88S
IOWA FALLS *   PTSUNNY   66  63  88 CALM      29.90S
$$

IAZ007>011-017>019-026>030-037>042-050>054-066-010000-
   NORTHEAST IOWA

CITY           SKY/WX    TMP DP  RH WIND       PRES   REMARKS
CEDAR RAPIDS   PTSUNNY   79  62  56 S16       29.87F HX  80
CHARLES CITY * RAIN      66  66 100 CALM      29.90S
CLINTON *      CLOUDY    73  65  75 SE12      29.91F
DECORAH *      RAIN      63  63 100 CALM      29.87S
DUBUQUE        CLOUDY    70  64  81 SE12      29.90F
MONTICELLO *   PTSUNNY   75  64  69 SE10G18   29.88S
OELWEIN *      LGT RAIN  66  66 100 NW14      29.91R
WATERLOO       HVY RAIN  65  62  90 CALM      29.90R VSB 1
$$

IAZ064-065-067-068-078-010000-
   EAST CENTRAL IOWA

CITY           SKY/WX    TMP DP  RH WIND       PRES   REMARKS
DAVENPORT      PTSUNNY   75  64  68 SE12      29.91F
IOWA CITY      PTSUNNY   79  59  50 S9        29.88F HX  80
MT. PLEASANT * MOSUNNY   82  61  47 S7        29.88F HX  83
MUSCATINE *    CLOUDY    81  59  47 VRB3      29.88S HX  81
QUAD CITIES    CLOUDY    74  67  78 E8        29.90F
$$

IAZ062-063-075>077-085>089-095>099-010000-
   SOUTHEAST IOWA

CITY           SKY/WX    TMP DP  RH WIND       PRES   REMARKS
BURLINGTON     PTSUNNY   80  62  54 S10       29.88F HX  81
FAIRFIELD *      N/A    N/A N/A N/A MISG        N/A
FORT MADISON * SUNNY     81  61  50 SW8       29.89S HX  81
KEOKUK *       SUNNY     81  63  54 S8        29.87F HX  82
OSKALOOSA *      N/A     79  61  53 SW10      29.87F HX  80
OTTUMWA        PTSUNNY   77  62  59 S8        29.86F
WASHINGTON *   PTSUNNY   79 -31   1 S13       29.89S
$$

ABBREVIATIONS USED IN REMARKS
   TC - TEMPERATURES IN CELSIUS
  WCI - WIND CHILL INDEX
   HX - HEAT INDEX
  VSB - VISIBILITY
$$




USA.gov is the U.S. government's official web portal to all federal, state and local government web resources and services.